STARLINK-1149 (45079 NORAD) Tracking and Keplerian Element Data

This shows tracking and keplerian element data for the satellite.

Feedback or suggestion? Click here.




ElementValue
Catalog45079
NameSTARLINK-1149
Epoch Orbit371
Epoch Day52.91667824
Epoch Year2020
RAAN117.8975
Inclination52.9949
Eccentricity0.0001405
Argument of Perigee60.914
Mean Anonmoly156.1267
Mean Motion15.76890277
Decay Rate0.00182588
L11 45079U 20006AM 20052.91667824 .00182588 00000-0 10878-2 0 9993
L22 45079 52.9949 117.8975 0001405 60.9140 156.1267 15.76890277 3714

Live tracking and technical data element details for STARLINK-1149 (NORAD 45079). STARLINK-1149 can be tracked NOW for your location showing map with azimuth and elevation plus other details from your city location.

Track the satellite on the map from your city or location and see movement details for azimuth, elevation, latitude, longitude, range, height, and movement on the map or in text.







IsCatalogInMostPopularTable: catalog: 45079, numindb: 5
Update: records affected: 1



GetName: 45079 STARLINK-1149

Hit Count: updated at: Mon, 24 Feb 2020 16:55:10 GMT